SCP
0 0 0 0 1 0 0 0 0 0 0 0 0 0 0 0 0 0 0 0 0 0 0 0 0 0 0 0 0 0 0 0 0 0 0 0 0 0 0 0 0 0 0
0 0 0 0 1 1 0 0 0 0 0 0 0 0 0 0 0 0 0 0 0 0 0 0 0 0 0 0 0 0 0 0 0 0 0 0 0 0 0 0 0 0 0
0 0 0 0 1 1 0 0 0 0 0 0 0 0 0 0 0 0 0 0 0 0 0 0 0 0 0 0 0 0 0 0 0 0 0 0 0 0 0 0 0 0 0
0 0 0 0 1 1 1 0 0 0 0 0 0 0 0 0 0 0 0 0 0 0 0 0 0 0 0 0 0 0 0 0 0 0 0 0 0 0 0 0 0 0 0
1 0 0 1 1 1 1 1 0 0 0 0 0 0 0 0 0 0 0 0 0 0 0 0 0 0 0 0 0 0 0 0 0 0 0 0 0 0 0 0 0 0 0
1 1 0 1 1 1 1 1 0 0 0 0 0 0 0 0 0 0 0 0 0 0 0 0 0 0 0 0 0 0 0 0 0 0 0 0 0 0 0 0 0 0 0
1 1 1 1 1 1 1 1 1 0 0 0 0 0 0 0 0 0 0 0 0 0 0 0 0 0 0 0 0 0 0 0 0 0 0 0 0 0 0 0 0 0 0
1 1 1 1 1 1 1 1 1 0 0 0 0 0 0 0 0 0 0 0 0 0 0 0 0 0 0 0 0 0 0 0 0 0 0 0 0 0 0 0 0 0 0
1 1 1 1 1 1 1 1 1 1 0 0 0 0 0 0 0 0 0 0 0 0 0 0 0 0 0 0 0 0 0 0 0 0 0 0 0 0 0 0 0 0 0
1 1 1 1 1 1 1 1 1 1 0 0 0 0 0 0 0 0 0 0 0 0 0 0 0 0 0 0 0 0 0 0 0 0 0 0 0 0 0 0 0 0 0
1 1 1 1 1 1 1 1 0 0 0 0 0 0 0 0 0 0 0 0 0 0 0 0 0 0 0 0 0 0 0 0 0 0 0 0 0 0 0 0 0 0 0
1 1 1 1 1 0 0 0 0 0 0 0 0 0 0 0 0 0 0 0 0 0 0 0 0 0 0 0 0 0 0 0 0 0 0 0 0 0 0 0 0 0 0
1 1 1 1 1 0 0 0 0 0 0 0 0 0 0 0 0 0 0 0 0 0 0 0 0 0 0 0 0 0 0 0 0 0 0 0 0 0 0 0 0 0 0
1 1 1 1 1 0 0 0 0 0 0 0 0 0 0 0 0 0 0 0 0 0 0 0 0 0 0 0 0 0 0 0 0 0 0 0 0 0 0 0 0 0 0
0 1 1 1 1 1 0 0 0 0 0 0 0 0 0 0 0 0 0 0 0 0 0 0 0 0 0 0 0 0 0 0 0 0 0 0 0 0 0 0 0 0 0
0 0 1 1 1 1 0 0 0 0 0 0 0 0 0 0 0 0 0 0 0 0 0 0 0 0 0 0 0 0 0 0 0 0 0 0 0 0 0 0 0 0 0
0 0 1 1 1 1 1 0 0 0 0 0 0 0 0 0 0 0 0 0 0 0 0 0 0 0 0 0 0 0 0 0 0 0 0 0 0 0 0 0 0 0 0
0 0 1 1 1 1 1 1 0 0 0 0 0 0 0 0 0 0 0 0 0 0 0 0 0 0 0 0 0 0 0 0 0 0 0 0 0 0 0 0 0 0 0
0 0 1 1 1 1 1 1 1 0 0 0 0 0 0 0 0 0 0 0 0 0 0 0 0 0 0 0 0 0 0 0 0 0 0 0 0 0 0 0 0 0 0
0 0 0 1 1 1 1 1 1 0 0 0 0 0 0 0 0 0 0 0 0 0 0 0 0 0 0 0 0 0 0 0 0 0 0 0 0 0 0 0 0 0 0
0 0 0 1 1 1 1 1 1 1 1 0 0 0 0 0 0 0 0 0 0 0 0 0 0 0 0 0 0 0 0 0 0 0 0 0 0 0 0 0 0 0 0
0 0 0 0 1 1 1 2 2 1 1 1 0 0 0 0 0 0 0 0 0 0 0 0 0 0 0 0 0 0 0 0 0 0 0 0 0 0 0 0 0 0 0
0 0 0 0 1 1 1 2 2 2 1 1 1 1 0 0 0 0 0 0 0 0 0 0 0 0 0 0 0 0 0 0 0 0 0 0 0 0 0 0 0 0 0
0 0 0 0 1 1 1 1 2 2 1 1 1 1 1 0 0 0 0 0 0 0 0 0 0 0 0 0 0 0 0 0 0 0 0 0 0 0 0 0 0 0 0
0 0 0 0 0 1 1 1 1 1 1 1 1 1 1 1 0 0 0 0 0 0 0 0 0 0 0 0 0 0 0 0 0 0 0 0 0 0 0 0 0 0 0
0 0 0 0 0 0 0 1 1 1 1 1 1 1 1 1 1 0 0 0 0 0 0 0 0 0 0 0 0 0 0 0 0 0 0 0 0 0 0 0 0 0 0
Wind_Speed
5 7 12 13 14 13 13 13 13 12 12 13 13 13 12 13 13 12 12 12 11 11 12 12 12 12 13 12 12 12 12 12 12 12 12 11 11 11 11 10 9 6 11
9 9 12 13 14 13 13 13 13 12 12 12 12 12 12 12 12 12 11 11 11 10 10 11 11 11 11 11 11 11 11 11 11 10 10 9 9 9 9 9 8 5 9
11 9 11 12 14 13 13 13 12 12 12 12 12 12 11 12 11 11 11 10 9 9 9 9 9 10 10 10 9 9 9 9 9 9 8 5 4 7 7 7 7 7 7
11 9 10 12 13 14 13 13 12 12 11 11 12 11 11 11 10 10 10 9 8 8 8 8 8 8 8 8 8 8 8 8 8 7 4 3 4 5 6 5 5 6 5
9 8 9 13 14 14 13 13 12 11 11 11 11 11 10 10 9 9 9 8 7 7 7 7 7 7 7 7 7 7 7 7 7 5 3 3 3 4 4 4 4 4 4
8 7 9 13 14 14 13 13 12 12 11 11 11 10 10 9 9 8 8 7 6 6 6 6 6 6 5 5 5 6 6 6 6 3 3 3 3 4 3 3 2 2 3
9 7 9 12 13 13 13 13 12 12 11 11 11 10 9 9 8 8 7 6 6 5 4 4 4 4 3 3 4 4 5 5 3 2 2 2 4 5 4 3 2 2 3
9 7 7 11 11 11 11 11 11 11 10 11 11 10 9 9 8 8 7 6 5 5 4 4 3 2 1 1 2 3 4 3 3 2 2 2 6 7 5 4 4 4 4
7 7 6 6 8 10 10 10 9 9 9 9 9 9 8 8 7 7 6 5 5 5 4 3 2 2 1 1 2 3 3 3 2 1 2 2 6 7 7 6 6 6 6
6 7 7 6 6 6 6 9 9 9 8 8 8 7 7 7 6 6 5 4 5 5 4 4 3 3 3 3 3 3 3 2 1 2 2 4 7 8 8 8 8 8 8
7 7 7 7 6 5 5 7 7 8 8 8 6 7 6 3 4 3 4 5 5 5 5 5 4 4 3 3 3 4 3 1 2 2 2 6 8 9 10 10 10 10 10
11 9 8 8 7 6 5 4 4 4 4 4 4 5 4 3 3 3 4 6 5 5 5 6 5 4 3 1 3 3 1 2 2 2 3 8 9 10 11 11 11 11 11
10 10 9 9 7 7 5 4 3 3 3 4 5 5 4 3 2 3 2 2 3 3 3 3 3 2 2 2 2 2 3 2 2 3 4 9 10 11 12 12 12 12 12
9 11 10 9 8 8 6 5 4 4 4 4 5 6 4 3 3 3 2 3 2 2 2 2 2 3 3 3 4 4 4 3 3 3 4 9 10 12 13 13 14 13 13
9 11 10 10 10 9 7 6 6 6 5 5 5 5 6 4 4 4 3 3 3 3 3 3 3 4 4 4 4 4 5 5 5 4 3 7 10 12 13 14 14 14 14
11 11 10 11 11 10 8 7 6 6 5 5 5 6 7 6 5 4 4 4 4 4 4 4 4 4 4 3 4 5 5 5 5 5 5 5 9 11 13 14 15 15 15
10 9 10 11 10 11 10 9 7 6 6 6 6 6 7 7 6 5 5 4 4 4 4 3 4 3 3 3 5 5 5 5 5 6 5 4 5 8 11 13 14 14 14
7 8 9 8 10 11 10 9 6 6 6 6 5 6 8 8 7 6 5 5 4 4 4 4 3 3 4 4 4 4 4 4 6 6 5 5 4 4 6 10 12 13 13
9 9 9 9 10 11 10 7 6 5 6 5 5 5 6 8 7 6 5 5 4 4 4 4 4 3 4 4 4 4 4 5 5 5 6 6 5 4 4 6 8 10 12
8 8 8 8 9 9 7 5 4 5 5 5 5 6 7 6 7 7 5 5 5 4 4 4 5 4 4 3 4 5 5 5 5 5 6 5 4 5 4 4 4 5 9
7 8 9 9 9 7 5 6 6 7 6 5 6 6 7 7 7 7 6 5 5 5 5 5 4 4 4 2 2 4 4 5 5 4 4 4 4 4 3 4 3 3 4
8 8 9 10 9 9 8 6 4 4 4 4 4 5 6 7 7 7 7 6 6 5 5 5 5 3 3 3 2 2 4 4 2 3 3 3 4 2 3 3 3 3 3
7 9 8 9 9 9 9 5 3 2 2 3 4 5 6 7 7 7 7 7 6 6 6 6 6 6 4 3 4 3 3 4 3 3 2 2 3 2 3 3 3 3 4
6 6 6 6 7 7 7 7 9 7 7 7 5 4 4 6 7 7 7 7 7 6 6 6 6 5 5 4 3 4 4 3 2 4 3 2 3 3 3 3 3 4 4
3 3 3 4 4 5 6 8 8 8 6 4 3 3 4 4 5 6 6 6 7 6 6 6 6 6 5 6 4 3 4 4 5 5 6 4 3 3 3 4 3 3 3
1 0 1 2 3 3 5 6 7 8 7 5 5 5 4 3 3 5 5 6 6 6 6 6 6 6 6 6 5 4 4 4 4 5 6 6 5 3 3 3 3 3 2
Wind_Direction
165 166 165 156 152 149 144 140 138 134 130 128 125 123 122 119 114 108 103 101 100 98 96 94 91 87 84 82 79 76 72 69 68 68 69 72 74 75 72 70 65 56 69
151 160 161 157 154 151 146 144 142 139 135 132 130 127 124 121 117 113 106 104 102 101 100 97 94 91 86 82 80 77 72 67 65 63 61 57 64 72 73 70 68 68 69
144 154 157 156 154 152 150 148 146 144 141 138 134 132 127 124 122 118 113 110 107 106 106 103 100 95 89 83 80 76 72 67 64 60 54 36 37 63 70 68 64 65 64
146 151 155 154 155 155 154 153 152 149 146 145 141 138 134 130 127 124 122 117 112 109 108 109 106 100 91 84 78 73 70 68 62 57 47 28 10 47 60 61 60 56 52
145 149 153 153 156 157 158 158 158 157 154 151 149 145 142 138 133 132 129 124 119 115 111 111 110 104 94 84 75 69 66 67 59 53 37 19 3 17 45 52 50 45 36
146 148 155 156 160 160 161 162 163 161 160 158 155 152 149 146 143 140 139 134 130 125 119 115 116 109 99 85 72 66 61 64 61 46 24 1 346 345 14 31 30 26 11
150 151 158 160 162 163 165 167 167 166 166 164 161 160 158 155 153 152 150 148 144 140 135 130 128 118 105 85 66 57 53 55 63 38 5 338 319 325 338 335 331 321 318
154 152 159 164 164 166 168 170 172 173 171 170 168 168 168 167 167 167 167 166 165 161 156 151 144 128 106 58 38 41 42 42 40 9 332 312 306 309 309 311 305 301 301
154 153 159 165 168 170 172 173 175 175 175 175 173 173 172 173 174 173 175 182 183 182 183 183 186 201 247 302 340 12 24 24 30 330 309 296 301 305 303 299 299 293 290
160 165 167 167 167 169 174 179 178 178 180 179 177 174 174 176 176 177 179 192 199 202 205 209 212 229 255 279 303 326 343 4 341 310 298 291 298 300 301 299 296 292 290
180 181 177 175 175 173 175 183 182 184 186 182 180 180 175 174 177 184 195 205 213 220 221 226 228 238 252 277 294 305 323 308 296 288 283 291 297 296 297 299 298 294 290
192 192 189 186 183 179 185 177 179 184 185 182 178 179 174 175 184 188 205 214 223 229 232 235 238 245 252 273 291 302 292 282 278 274 276 287 294 295 296 296 297 295 293
194 194 195 194 190 186 186 178 180 182 184 189 188 185 179 178 184 191 194 217 228 234 236 246 251 243 239 244 260 267 267 271 264 267 275 283 290 294 295 295 295 295 293
194 200 198 196 195 195 191 189 187 190 193 198 198 190 182 186 195 197 201 205 208 210 217 225 230 236 240 245 249 258 262 257 256 257 266 275 283 289 293 293 294 294 293
203 205 202 196 199 198 195 198 198 201 203 203 200 196 192 195 203 204 208 208 211 208 212 219 226 234 240 246 247 250 258 259 259 257 264 270 276 282 287 291 293 294 294
209 210 203 201 201 198 200 202 203 202 204 203 205 203 199 201 203 204 210 211 213 210 213 215 221 228 237 239 251 251 254 257 259 258 256 264 267 273 281 286 290 292 294
211 210 207 205 201 201 204 206 205 203 201 206 209 204 204 204 204 204 208 213 215 209 211 217 226 229 241 242 251 254 254 254 254 257 258 257 263 269 274 281 287 292 295
211 209 210 205 202 205 206 205 206 202 202 209 208 205 206 207 203 202 209 216 209 201 204 212 217 228 240 244 254 258 255 256 257 258 259 258 256 261 271 279 284 289 292
211 211 210 206 205 206 206 203 203 200 204 207 204 205 205 205 203 203 212 212 199 202 209 216 219 219 237 247 255 261 259 257 258 258 259 260 256 257 259 275 276 280 286
215 212 212 210 210 204 199 196 198 205 213 210 209 210 203 203 201 204 212 208 197 204 213 216 225 223 231 243 259 268 263 258 255 253 257 261 258 255 254 262 271 279 284
217 212 212 211 210 195 189 196 202 213 213 212 214 211 207 205 201 204 211 205 201 209 214 212 217 227 234 219 250 283 274 255 254 254 251 256 260 259 258 261 263 268 284
220 218 217 216 209 199 199 195 194 191 199 206 202 204 206 205 203 204 209 209 204 208 213 213 210 217 224 195 200 264 303 312 292 258 251 250 259 264 267 266 263 263 268
226 220 219 218 212 206 198 176 162 155 174 192 205 210 211 207 206 207 210 208 206 208 216 215 209 211 225 215 199 201 232 261 303 289 256 249 255 260 265 267 265 263 266
235 229 221 218 211 207 193 189 190 197 208 213 207 205 202 204 209 210 213 210 212 213 219 219 213 212 213 226 214 216 224 210 245 295 286 261 254 255 262 270 267 266 264
246 231 219 209 211 205 195 198 198 207 216 207 186 191 201 203 209 212 213 213 216 216 218 216 213 214 216 222 218 210 225 234 228 245 275 285 285 260 256 259 256 258 263
342 323 211 188 209 201 194 197 198 203 206 199 200 206 211 209 210 215 215 215 217 217 217 217 215 216 220 222 225 220 211 217 222 231 253 269 276 271 264 258 253 258 267